Lid_Strength_Index
4 3 2 2 2 2 2 2 1 1 1 1 2 2 2 2 1 1 1 0 0 -0 1 1 1 1 1 2 2 2 3 3 2 4 3 2 2 2 3 3 1 0 0
5 4 3 2 2 2 2 2 1 1 1 1 1 1 2 2 1 0 1 1 0 0 1 1 1 1 2 3 2 4 4 2 3 3 4 5 3 2 4 3 2 1 1
5 4 4 3 2 2 2 2 1 1 1 1 1 2 1 2 2 1 1 1 1 1 1 1 1 1 2 3 3 3 4 3 2 3 3 6 6 4 2 4 4 3 3
4 4 4 4 3 2 2 2 1 1 1 1 1 2 2 3 2 2 1 1 0 0 0 0 1 1 2 3 4 3 4 3 4 3 2 3 4 5 6 3 4 4 3
4 4 4 3 3 2 2 2 1 1 1 1 1 2 2 2 2 2 2 1 1 0 0 1 1 2 2 3 3 3 2 2 4 3 3 3 4 5 5 6 5 4 3
4 4 3 3 3 2 2 2 2 2 1 1 1 2 2 2 2 2 2 2 1 1 1 1 1 2 3 3 3 3 3 2 2 3 3 3 4 4 6 6 6 6 4
4 4 4 4 3 3 2 2 2 2 2 1 1 1 2 2 2 2 2 2 2 2 1 1 1 2 3 3 3 3 3 1 3 3 3 3 4 3 4 5 6 6 5
4 4 4 3 3 3 3 2 2 2 2 2 2 1 1 1 1 2 2 1 1 1 1 1 1 2 4 3 3 3 2 2 3 3 3 3 3 4 3 4 5 6 5
4 4 4 3 3 3 3 2 2 2 2 2 2 1 1 1 1 2 2 1 1 1 1 1 1 2 3 4 4 3 2 2 2 2 3 3 3 2 3 3 4 5 7
4 4 4 3 3 2 2 2 2 2 2 2 1 1 1 1 1 1 2 1 1 1 1 1 1 2 3 3 4 3 2 2 2 2 3 3 3 3 3 3 3 5 5
5 4 4 3 3 2 2 2 2 2 2 2 1 2 1 1 1 2 1 1 1 1 1 1 2 2 3 3 3 3 3 2 2 2 2 3 2 3 2 3 3 4 4
4 4 4 4 3 3 3 3 2 2 2 2 2 2 1 1 1 1 1 1 1 1 2 1 1 2 3 4 3 3 3 3 3 2 3 3 2 3 2 3 3 3 3
4 4 4 5 4 3 3 3 2 2 2 2 2 2 2 2 2 1 1 1 1 2 1 2 2 2 3 4 3 3 3 3 2 2 2 3 3 3 3 3 3 3 3
5 5 5 5 4 3 3 3 3 2 2 2 2 2 2 2 2 1 1 1 1 2 2 2 2 1 2 2 3 3 3 3 3 2 2 2 2 2 2 3 2 2 3
6 6 5 4 4 3 3 3 3 2 2 2 2 2 2 1 1 1 1 1 1 1 2 2 2 2 2 2 3 3 3 3 4 3 3 2 2 1 1 2 3 2 3
7 7 5 5 4 3 3 3 3 3 2 2 3 2 2 2 2 2 2 1 1 1 2 2 2 2 2 3 4 3 3 3 3 3 3 2 0 1 2 2 2 2 3
7 6 6 5 3 3 3 3 3 2 2 3 2 2 2 2 2 2 2 2 2 1 2 2 2 2 2 5 5 4 3 3 3 3 3 2 1 1 1 2 2 2 2
6 5 4 4 3 3 3 2 2 3 3 3 3 2 2 2 2 2 2 2 2 2 2 2 3 2 2 7 7 5 1 1 2 3 3 3 3 1 1 2 2 3 2
6 5 3 3 3 3 3 3 3 3 3 3 3 2 2 2 2 2 2 2 2 2 2 2 3 3 3 8 8 7 1 3 3 3 4 3 2 2 4 2 3 3 2
7 6 4 4 4 3 3 3 3 3 4 3 3 2 2 2 3 2 2 2 2 2 2 2 2 4 3 9 9 4 2 4 4 5 3 4 2 5 6 2 3 3 2
5 6 7 5 4 4 3 3 3 4 3 2 2 2 2 2 2 2 2 2 2 2 2 2 2 3 4 9 10 6 4 4 4 4 3 2 6 8 7 5 3 3 3
5 4 4 5 6 5 4 4 4 3 2 2 2 2 2 2 2 2 2 2 2 2 3 2 4 4 6 9 9 9 7 5 3 3 2 2 7 8 8 6 5 6 5
7 7 6 6 5 4 4 4 3 2 2 3 3 3 2 2 2 2 3 3 2 3 3 4 5 5 5 5 10 10 8 6 3 2 3 8 10 9 7 5 6 6 6
7 6 6 7 9 6 6 6 3 4 3 3 3 3 3 3 2 2 2 3 3 3 3 4 4 5 4 5 7 8 6 6 3 5 7 7 7 6 6 6 6 6 6
8 8 9 8 8 7 6 5 8 7 4 3 3 3 3 3 3 8 4 2 4 4 3 3 4 4 4 5 7 7 6 5 6 7 8 7 7 7 7 7 6 6 5
6 6 6 7 7 6 4 5 5 4 5 4 3 3 3 6 8 8 10 15 12 10 10 9 4 4 8 12 12 12 12 11 10 7 8 8 7 7 6 6 6 6 5